Other Public Products
Issued by NWS Grand Forks, ND

Home | Current Version | Previous Version | Graphics & Text | Print | Product List | Glossary On
Versions: 1 2 3 4 5 6 7 8 9 10 11 12 13 14 15 16 17 18 19 20 21 22 23 24 25 26 27 28 29 30 31 32 33 34 35 36 37 38 39 40 41 42 43 44 45 46 47 48 49 50
000
FPUS83 KFGF 222031
OPUFGF
PRAIRIE TO PINES WEATHER ROUNDUP
NATIONAL WEATHER SERVICE EASTERN NORTH DAKOTA/GRAND FORKS ND
200 PM CST THU FEB 22 2018

 **SATELLITE DATA USED TO AUGMENT SKY COVER AT AUTOMATED STATIONS**
 *****  WEATHER ACROSS EASTERN NORTH DAKOTA  *****

CITY           SKY/WX    TMP DP  RH WIND       PRES   REMARKS
GRAND FORKS    FAIR      15   8  73 S16       30.38F WCI  -1
GRND FORKS AFB SUNNY     17   8  66 S10       30.36F WCI   5
GRND FORKS NWS   N/A     15  10  79 S9        30.35F WCI   4
BUXTON           N/A     17  15  92 S12         N/A  WCI   5
DEVILS LAKE    FAIR      12   5  73 S7        30.29F WCI   1
FARGO          FAIR      22  14  71 S13       30.40F WCI  10
WAHPETON ARPT  CLOUDY    23  14  68 SE9       30.40F WCI  13
$$

 *****  WEATHER ACROSS CENTRAL AND WESTERN NORTH DAKOTA  *****

CITY           SKY/WX    TMP DP  RH WIND       PRES   REMARKS
JAMESTOWN      PTSUNNY   21  13  71 SE9       30.29F WCI  11
BISMARCK       FAIR      14   5  67 CALM      30.26F
MINOT          FAIR      19   3  49 N6        30.22F WCI  11
MINOT AFB      FAIR      16   2  54 SW3       30.22F
GARRISON         N/A     10  -2  58 CALM      30.22F
WILLISTON      FAIR       8  -2  63 W6        30.25F WCI  -2
DICKINSON      FAIR      16   2  54 NW3       30.14F
HETTINGER      FAIR      14   3  61 CALM      30.15F
$$

 *****  OTHER OBSERVATIONS NORTHEAST NORTH DAKOTA  *****

CITY           SKY/WX    TMP DP  RH WIND       PRES   REMARKS
WALHALLA       FAIR      21  10  63 S8        30.31S WCI  12
LANGDON        FAIR      16   9  73 S14       30.26S WCI   1
CAVALIER         N/A     16   9  73 S13       30.33S WCI   2
GRAFTON        FAIR      14   7  73 S12       30.38F WCI   0
CANDO          FAIR      16   5  62 S7        30.29S WCI   6
FORT TOTTEN      N/A     15   2  57 S7        29.95S WCI   5
ROLLA          FAIR      23   5  46 SW10      30.21F WCI  12
RUGBY          FAIR      12   1  62 CALM      30.24F
 ***** THE ABOVE OBSERVATIONS ARE NON NWS ARE NOT QUALITY
        CONTROLLED AND MAY MIS-REPORT RAIN FOR SNOW...
$$

 *****  OTHER OBSERVATIONS SOUTHEAST NORTH DAKOTA *****

CITY           SKY/WX    TMP DP  RH WIND       PRES   REMARKS
COOPERSTOWN    FAIR      19  14  79 S15       30.32S WCI   5
VALLEY CITY    FAIR      19  14  79 S12       30.34S WCI   7
OAKES            N/A     23  16  74 S6        30.32F WCI  16
GWINNER          N/A     23  18  80 SE6       30.34F WCI  16
SHEYENNE NWR     N/A     24  15  67 S10       29.95S WCI  14
BUFFALO          N/A     20   9  62 NW12        N/A  WCI   9
WYNDMERE       NOT AVBL
 ***** THE ABOVE OBSERVATIONS ARE NON NWS ARE NOT QUALITY
       CONTROLLED AND MAY MIS-REPORT RAIN FOR SNOW...
$$

  *****  WEATHER ACROSS NORTHERN MINNESOTA  *****

CITY           SKY/WX    TMP DP  RH WIND       PRES   REMARKS
FLAG ISLAND    FAIR      16   7  67 S10       30.35F WCI   3
WARROAD        FAIR      21  10  63 SW9G16    30.37F WCI  11
ROSEAU         FAIR      21  12  68 SW14G20   30.36F WCI   8
HALLOCK        FAIR      14   9  79 S18       30.36F WCI  -3
THF RVR FALLS  FAIR      20  10  65 SW14      30.39F WCI   7
HALSTAD        NOT AVBL
FOSSTON        CLOUDY    25   7  46 SW12      30.39S WCI  14
BAUDETTE       FAIR      23   3  42 S9        30.36F WCI  13
WASKISH        FAIR      21   7  53 W3        30.39F
CROOKSTON      FAIR      19  12  73 S16       30.40F WCI   5
$$
  *****  WEATHER ACROSS CENTRAL AND WEST MINNESOTA  *****

CITY           SKY/WX    TMP DP  RH WIND       PRES   REMARKS
BEMIDJI        FAIR      27   2  35 SW5       30.38S WCI  21
PARK RAPIDS    CLOUDY    23   5  46 S8        30.39F WCI  14
WADENA         CLOUDY    21   7  53 S8        30.40F WCI  12
DETROIT LAKES  FAIR      25   9  50 SE10      30.39F WCI  15
MOORHEAD       FAIR      21  12  68 S16       30.40F WCI   7
FERGUS FALLS   CLOUDY    21  12  68 S10       30.40F WCI  10
ELBOW LAKE     CLOUDY    23  14  68 E9        30.40F WCI  13
MORRIS MN      PTSUNNY   25  16  68 SE7       30.38F WCI  17
STAPLES        CLOUDY    21   5  49 S7        30.41F WCI  13
WHEATON        PTSUNNY   21  16  79 SE10      30.40F WCI  10
$$
  *****  WEATHER ELSEWHERE ACROSS MINNESOTA  *****

CITY           SKY/WX    TMP DP  RH WIND       PRES   REMARKS
DULUTH         PTSUNNY   22   3  44 S7        30.45F WCI  13
INTRNTL FALLS  FAIR      26   1  34 SW9       30.39F WCI  17
ELY            FAIR      30   1  29 S10       30.41F WCI  21
CLOQUET        CLOUDY    23   1  39 SE6       30.45F WCI  16
BRAINERD       CLOUDY    24   4  42 S7        30.44F WCI  16
HIBBING        FAIR      25   2  37 VRB6      30.42F WCI  18
ALEXANDRIA     CLOUDY    23  12  62 SE7       30.39F WCI  15
SAINT CLOUD    CLOUDY    22  12  65 SE3       30.42F
MINNEAPOLIS    CLOUDY    28  14  55 E7        30.46F WCI  21
$$

  *****  WEATHER ACROSS SOUTH DAKOTA  *****

CITY           SKY/WX    TMP DP  RH WIND       PRES   REMARKS
SIOUX FALLS    FLURRIES  24  20  84 E12       30.28F WCI  13
BROOKINGS      LGT SNOW  25  21  86 E9        30.28F VSB 3/4 WCI  15
WATERTOWN      LGT SNOW  24  19  81 SE9       30.27F WCI  14
HURON          LGT SNOW  24  21  88 SE8       30.27F FOG     WCI  15
SISSETON         N/A     22  16  78 SE13      30.36F WCI  10
ABERDEEN       CLOUDY    25  19  78 S10       30.31F WCI  15
MITCHELL       HVY SNOW  22  20  92 E9        30.28F VSB 1/4 WCI  12
PIERRE         LGT SNOW  20  18  92 SE10      30.19F VSB 3/4 WCI   9
MOBRIDGE       FAIR      18  11  74 SE8       30.21F WCI   8
RAPID CITY     FAIR      12   6  77 E3        30.05F
$$

  *****  SOME WEATHER IN NEARBY STATES *****

CITY           SKY/WX    TMP DP  RH WIND       PRES   REMARKS
GLASGOW MT     FAIR      -7 -14  71 NW17      30.23F HAZE    WCI -30
GREAT FALLS MT CLOUDY    10  -1  61 NW7       30.17S WCI  -1
CHEYENNE WY    FAIR      26  16  65 NE8       29.87F WCI  18
SCOTTSBLUFF NE LGT SNOW  23  19  85 SE5       30.00F FOG     WCI  17
OMAHA NE       FRZ DRZL  29  26  89 SE8       30.29F WCI  21
DES MOINES IA  FRZ DRZL  31  29  92 SE7       30.34S FOG     WCI  24
DAVENPORT IA   CLOUDY    37  29  72 E17       30.38F
CHICAGO IL     CLOUDY    38  28  67 NE16      30.45F
EAU CLAIRE WI  CLOUDY    29  12  49 SE7       30.48F WCI  22
LA CROSSE WI   CLOUDY    31  19  61 E6        30.47F
$$

  *****  SOME NATIONAL WEATHER *****

CITY           SKY/WX    TMP DP  RH WIND       PRES   REMARKS
LA GUARDIA NY  LGT RAIN  42  33  70 NE12      30.59R
RALEIGH NC     FAIR      76  62  62 SW15      30.39F
ATLANTA GA     FAIR      78  65  63 SE9       30.39F
NEW ORLEANS LA FAIR      83  67  58 SE20      30.26F
OKLAHOMA CITY  CLOUDY    31  30  96 NW5       30.19F FOG
ALBUQUERQUE NM PTSUNNY   42  24  49 VRB6      30.06F
SALT LAKE CITY PTSUNNY   35  17  47 S13G22    29.95F
LOS ANGELES CA FAIR      59  39  47 W9        30.23F
BOISE ID       FAIR      29  19  66 W7        30.02S WCI  22
SEATTLE WA     FAIR      35  23  61 N14       30.32S
$$

*** WEATHER ACROSS MANITOBA...SASKATCHEWAN AND ONTARIO ***
                ***ONTARIO***

CITY           SKY/WX    TMP DP  RH WIND       PRES   REMARKS
GERALDTON      MOSUNNY   25  -2  30 SW13      30.48F WCI  13
THUNDER BAY    MOSUNNY   21  12  68 E12       30.53F WCI   9
SIOUX LOOKOUT  MOSUNNY   23   1  39 SW9       30.34F WCI  13
TORONTO        PTSUNNY   34  21  60 E9        30.62F
BIG TROUT LK   SUNNY     18   5  57 SW16G25   30.14F WCI   3
PICKLE LAKE    MOSUNNY   21   1  42 S18       30.31F WCI   6
DRYDEN         SUNNY     23   1  39 S14G20    30.34F WCI  11
KENORA         SUNNY     18   3  53 SW17G24   30.33F WCI   2
$$
                *** MANITOBA***

CITY           SKY/WX    TMP DP  RH WIND       PRES   REMARKS
BRANDON        MOSUNNY   14   1  57 SW8       30.25F WCI   3
DAUPHIN        SUNNY     14   3  62 W6        30.20F WCI   5
ISLAND LAKE    SUNNY     18   0  45 SW18G26   30.06F WCI   2
PILOT MOUND      N/A     16   7  67 SW8         N/A  WCI   5
THE PAS        MOSUNNY   14   0  52 SW14      30.03S WCI  -1
THOMPSON       PTSUNNY   14   1  57 SW15G23   29.86S WCI  -1
WINNIPEG       SUNNY     14   5  67 S16       30.32F WCI  -2
LYNN LAKE      CLOUDY     1  -9  60 NW15G22   29.89R WCI -18
CHURCHILL      PTSUNNY    3  -6  66 NW14G23   29.70R WCI -15
GILLAM         LGT SNOW  10   1  67 SW16G25   29.83S WCI  -7
$$
                ***SASKATCHEWAN***

CITY           SKY/WX    TMP DP  RH WIND       PRES   REMARKS
ESTEVAN        MOSUNNY   12   0  57 SW8       30.21F WCI   1
KINDERSLEY     PTSUNNY   14   9  79 NW7       30.18S WCI   4
LLOYDMINSTER   MOSUNNY   18  10  73 W8        30.15S WCI   7
PRINCE ALBERT  MOSUNNY   18   5  57 W14       30.15R WCI   4
REGINA         PTSUNNY    7   0  72 SW8       30.18F WCI  -6
YORKTON        SUNNY     12   0  57 SW9       30.16S WC



USA.gov is the U.S. government's official web portal to all federal, state and local government web resources and services.